Wind_Speed
20 21 21 21 21 21 22 21 20 21 22 20 19 18 19 19 19 18 17 17 16 16 16 16 16 16 15 15 15 15 15 15 15 15 15 15 15 15 15 16 16 16 15 15
21 21 20 22 23 23 22 21 20 21 22 21 20 20 20 20 19 19 19 19 18 18 17 16 17 18 17 17 16 16 16 16 16 17 17 17 17 16 16 16 16 16 16 15
21 21 21 22 23 23 22 21 21 22 22 22 22 21 20 20 20 20 21 20 20 19 19 18 18 18 18 18 17 17 17 17 17 18 19 18 17 17 16 16 16 16 16 15
22 22 23 23 23 23 23 22 22 23 22 21 22 20 20 20 21 21 21 21 20 20 20 20 19 18 18 18 19 18 18 17 18 18 18 16 16 16 16 16 16 16 16 16
23 23 23 24 23 23 23 23 23 23 23 22 22 21 20 20 21 20 20 20 20 20 20 20 19 19 19 19 19 20 19 18 19 18 17 16 16 15 16 16 15 16 16 16
24 25 25 24 24 24 24 24 24 23 23 24 23 22 21 20 20 20 21 20 20 21 21 21 20 20 20 20 20 21 20 19 19 19 17 16 16 16 15 16 16 16 16 16
25 26 25 25 25 25 24 23 23 23 24 24 23 23 22 20 20 21 21 20 20 21 22 21 21 21 20 21 22 22 21 21 20 19 17 16 16 16 16 16 16 16 16 17
25 26 26 26 26 26 25 24 24 23 22 22 24 25 22 21 20 21 21 21 21 21 22 22 21 21 22 22 23 23 22 22 21 19 18 17 17 16 17 17 17 17 18 18
26 26 26 26 26 26 25 26 24 23 22 22 24 24 22 21 20 21 22 22 21 21 22 22 22 22 22 23 23 23 22 22 21 20 19 19 18 18 18 18 18 18 19 19
25 26 26 26 26 26 26 25 25 24 23 22 22 23 22 21 21 21 21 21 22 22 23 23 23 23 23 22 23 24 23 23 22 21 20 20 20 19 19 19 19 19 19 19
25 25 25 26 26 26 26 26 26 25 24 22 21 22 23 22 21 22 22 22 23 23 24 25 24 24 24 24 24 25 24 24 23 23 22 22 21 21 22 22 21 21 20 20
25 25 25 25 26 26 26 26 26 26 26 24 22 24 26 23 22 22 23 24 24 24 25 25 25 25 25 25 25 26 25 24 24 24 24 23 23 23 23 23 23 23 22 21
24 25 24 24 25 26 27 27 27 27 26 26 23 24 26 24 24 24 24 25 25 26 26 26 25 25 25 26 26 26 25 25 24 25 25 24 24 24 24 24 24 24 24 22
25 25 25 25 25 26 28 28 27 27 27 26 25 25 26 25 25 25 26 26 27 26 26 26 25 26 26 26 26 26 26 25 25 25 25 25 24 24 24 24 24 24 24 24
26 26 27 27 28 27 27 28 29 29 28 27 26 26 26 26 25 26 27 26 27 27 26 26 26 26 26 26 26 26 26 26 25 25 25 25 24 24 24 24 25 25 25 24
26 27 28 28 28 29 29 29 29 29 29 28 27 27 27 27 27 26 27 27 27 26 27 27 27 27 27 27 27 26 26 26 25 25 25 25 25 25 25 25 26 26 26 26
25 26 27 28 29 29 30 29 29 29 28 28 28 29 29 29 29 28 27 27 28 28 27 28 27 27 27 27 27 27 27 26 26 26 26 25 26 26 26 26 26 27 27 27
24 25 27 27 27 29 29 29 29 29 29 29 29 29 30 31 30 30 29 29 28 28 28 28 27 27 28 28 28 28 27 27 27 27 27 27 27 27 27 27 27 27 27 27
22 24 24 25 27 29 29 27 28 29 30 30 30 30 31 31 31 30 30 29 28 27 27 26 26 27 27 28 28 28 28 28 28 28 28 28 28 27 26 26 27 27 27 28
22 23 24 25 25 27 28 27 27 28 29 29 29 30 30 30 31 30 30 30 29 28 27 27 27 27 27 27 27 27 27 28 28 28 28 28 28 26 26 27 27 27 27 27
22 23 24 24 25 27 27 27 27 28 29 28 28 29 29 30 30 30 30 29 29 29 28 28 28 28 27 27 27 27 27 27 28 27 27 28 28 28 27 28 27 28 27 27
22 23 23 24 25 26 26 26 27 28 28 28 28 28 29 29 29 28 28 28 28 28 29 29 29 28 28 27 27 27 26 26 27 27 27 28 29 29 28 28 28 27 27 26
23 23 23 24 25 25 25 26 27 28 29 29 29 29 29 29 28 28 27 27 28 28 28 28 28 28 28 27 26 26 26 26 27 27 27 28 29 29 28 29 28 28 27 26
21 23 23 23 24 24 26 26 27 28 29 29 30 30 30 30 29 28 28 28 28 28 28 28 27 27 26 27 27 26 26 27 27 27 28 28 27 27 28 27 28 27 27 27
21 22 23 23 24 26 26 27 27 28 28 29 29 30 29 29 29 28 28 27 27 27 26 27 27 27 26 26 26 26 27 27 27 27 27 26 26 26 27 27 27 27 28 28
20 21 22 22 22 24 24 26 26 26 26 26 27 27 29 29 28 28 27 26 27 27 26 26 27 26 26 26 26 26 26 26 26 26 26 26 27 27 27 27 27 27 27 27
Wind_Direction
250 247 244 244 242 242 244 245 249 252 254 254 255 257 260 261 261 262 263 263 262 264 266 267 268 269 271 277 281 284 284 286 286 286 286 280 278 273 269 269 271 269 267 264
249 246 244 243 242 242 242 244 247 251 254 255 256 258 259 261 261 261 262 263 262 262 265 269 268 269 270 276 280 286 286 286 287 288 288 280 276 272 270 270 269 268 268 266
248 246 243 243 244 244 244 245 247 250 255 258 261 263 263 262 261 261 261 263 262 262 261 264 268 268 268 273 278 281 282 284 288 288 286 280 273 271 270 269 268 266 266 265
245 244 242 243 243 244 245 246 248 251 256 259 260 260 263 261 260 261 261 263 262 261 260 263 265 267 269 271 275 279 280 284 286 287 286 282 275 270 269 268 266 264 264 264
245 244 242 242 242 243 244 247 249 252 256 257 259 261 261 262 262 261 261 263 265 263 261 261 263 265 269 270 273 277 278 283 287 288 286 284 276 271 269 269 268 265 264 264
243 243 242 241 242 242 244 246 250 253 255 256 259 262 261 262 262 262 262 263 265 264 262 261 262 265 267 268 270 273 274 280 286 287 283 280 274 270 268 267 266 267 267 265
244 244 242 241 242 243 244 245 248 250 252 257 261 262 261 261 262 263 264 264 264 263 263 263 263 264 267 269 272 273 274 277 281 283 278 276 273 269 267 268 268 269 270 268
244 244 244 243 243 244 245 245 244 249 255 259 261 263 264 264 264 262 263 263 263 262 261 263 265 265 266 268 270 273 275 275 279 279 277 274 272 269 268 268 270 270 270 270
243 245 246 244 243 243 244 243 245 249 253 257 262 266 267 267 265 264 264 263 262 262 262 263 265 268 267 268 270 272 275 273 274 274 272 271 270 270 269 270 269 268 270 271
245 246 245 246 244 242 243 244 244 247 252 256 262 265 267 268 266 266 265 264 264 263 264 265 267 268 268 269 270 270 274 273 270 268 268 269 269 269 269 269 268 267 268 269
243 246 245 246 244 243 243 244 246 248 252 256 262 266 266 267 265 265 266 266 265 265 265 266 268 269 268 268 269 270 273 270 266 265 267 268 269 270 269 268 268 267 266 266
243 245 244 244 246 244 245 245 246 248 252 256 261 266 266 266 263 263 264 265 266 265 266 266 268 268 267 267 267 269 272 269 264 263 264 266 268 270 270 268 268 268 265 265
243 244 244 243 245 245 245 246 248 249 253 256 258 263 266 265 263 262 262 263 265 266 267 268 268 268 266 266 267 268 268 266 263 262 262 264 267 269 269 269 268 267 264 265
243 243 242 242 243 245 248 248 249 251 253 256 257 261 264 264 263 262 263 264 265 265 267 268 269 268 266 267 268 269 268 266 263 262 262 262 264 265 267 268 268 267 265 264
245 245 243 244 246 246 248 248 249 250 251 254 256 258 260 260 261 262 264 264 264 265 266 268 268 269 268 268 269 268 268 268 267 263 263 263 263 265 266 266 267 267 265 265
245 246 246 248 250 251 250 249 251 252 252 252 255 257 258 259 261 263 265 264 263 264 266 267 268 269 269 268 268 268 267 267 267 263 262 262 264 266 266 266 266 267 266 267
248 248 248 249 250 252 252 252 253 252 253 254 254 255 258 260 261 263 265 266 264 264 266 268 269 270 270 268 267 267 267 266 266 264 262 261 264 267 266 265 265 267 267 268
249 249 249 250 249 251 252 252 253 254 255 256 256 257 258 260 261 262 264 266 266 266 266 268 269 269 270 270 268 267 267 266 267 266 264 263 263 266 266 264 263 266 267 268
250 249 249 250 252 254 252 251 252 253 254 255 256 258 259 259 260 262 264 264 266 266 266 267 269 270 270 270 270 267 266 266 266 266 265 266 263 264 264 266 266 267 268 268
251 249 249 250 252 254 254 255 256 257 256 256 257 258 258 259 259 262 265 265 265 266 267 268 269 271 271 270 268 267 266 267 266 266 264 264 262 262 264 266 269 270 270 270
250 248 248 251 253 256 255 255 255 256 256 257 257 257 256 257 258 261 263 265 266 266 266 267 268 270 271 270 268 267 267 266 266 264 262 261 261 262 264 267 270 271 271 270
249 249 250 253 255 257 257 258 256 257 259 259 259 258 258 258 259 260 261 262 264 265 266 267 267 268 269 269 268 267 267 267 265 263 261 261 262 264 266 267 268 269 269 268
251 250 250 252 255 257 260 261 260 260 261 260 259 259 258 258 257 258 260 262 265 267 268 269 268 267 267 268 268 268 266 265 264 262 262 262 263 264 266 266 266 267 267 266
255 254 253 254 256 258 261 263 263 263 263 260 258 259 257 257 258 258 260 262 265 267 268 268 267 265 266 268 268 268 265 264 265 264 263 263 263 264 265 265 265 265 266 267
258 259 258 257 257 259 262 264 265 265 266 264 261 259 257 258 258 259 261 263 265 266 266 267 266 265 265 267 269 268 266 266 266 264 262 260 262 264 264 267 267 267 267 267
263 262 261 261 262 262 262 265 267 268 267 264 261 259 259 258 258 258 260 263 264 265 265 265 264 264 265 265 266 267 267 265 264 263 262 261 261 263 264 264 266 266 267 268
Height
5841 5844 5846 5848 5851 5853 5855 5856 5858 5858 5858 5860 5861 5862 5862 5862 5863 5863 5863 5864 5864 5864 5864 5864 5863 5863 5863 5862 5861 5860 5859 5858 5856 5855 5854 5853 5851 5850 5849 5849 5849 5849 5849 5849
5837 5839 5842 5843 5844 5847 5849 5851 5853 5853 5853 5855 5856 5857 5858 5858 5858 5859 5859 5859 5860 5860 5860 5860 5860 5859 5859 5859 5858 5856 5855 5854 5853 5852 5850 5849 5847 5846 5845 5845 5844 5844 5845 5845
5832 5835 5836 5837 5839 5842 5844 5846 5848 5849 5849 5850 5852 5853 5853 5854 5854 5854 5854 5855 5855 5856 5856 5856 5855 5855 5855 5854 5853 5852 5851 5850 5849 5847 5846 5844 5842 5841 5841 5841 5840 5840 5840 5841
5826 5828 5830 5832 5834 5837 5839 5841 5842 5843 5845 5846 5847 5849 5849 5849 5849 5849 5850 5850 5850 5851 5851 5851 5851 5850 5850 5849 5849 5848 5847 5846 5845 5843 5841 5840 5838 5837 5837 5837 5836 5836 5836 5837
5821 5823 5825 5827 5830 5831 5833 5835 5836 5837 5839 5841 5842 5843 5845 5844 5844 5844 5845 5845 5845 5845 5845 5845 5845 5845 5845 5845 5844 5843 5842 5841 5840 5839 5837 5836 5834 5834 5833 5832 5832 5832 5833 5833
5815 5817 5819 5822 5824 5825 5827 5829 5830 5832 5834 5835 5837 5838 5839 5839 5839 5839 5839 5840 5840 5840 5840 5840 5840 5840 5840 5839 5839 5838 5838 5837 5835 5834 5833 5832 5831 5830 5830 5829 5829 5829 5828 5829
5809 5810 5813 5815 5817 5819 5821 5824 5826 5827 5829 5830 5831 5831 5833 5833 5834 5834 5834 5834 5834 5834 5835 5835 5835 5835 5834 5834 5834 5833 5833 5832 5830 5829 5828 5828 5827 5826 5825 5825 5825 5825 5824 5825
5803 5805 5807 5809 5812 5814 5816 5819 5822 5824 5825 5826 5824 5824 5827 5827 5827 5827 5828 5828 5828 5829 5829 5829 5829 5829 5829 5829 5829 5828 5827 5826 5825 5824 5824 5823 5822 5822 5821 5821 5821 5821 5820 5820
5797 5800 5801 5803 5805 5808 5809 5811 5815 5817 5818 5819 5818 5818 5819 5820 5821 5821 5821 5822 5822 5823 5823 5823 5823 5823 5823 5823 5823 5823 5822 5821 5820 5819 5819 5819 5818 5817 5817 5816 5816 5816 5816 5816
5789 5792 5794 5796 5798 5800 5803 5805 5807 5809 5811 5813 5814 5813 5815 5814 5814 5815 5815 5815 5816 5816 5817 5817 5817 5818 5818 5817 5817 5817 5816 5816 5815 5814 5814 5814 5813 5812 5812 5811 5811 5811 5811 5810
5782 5785 5787 5789 5791 5794 5797 5799 5800 5803 5805 5807 5809 5811 5807 5808 5808 5808 5809 5809 5809 5809 5810 5810 5811 5811 5811 5811 5810 5810 5810 5809 5809 5808 5808 5808 5807 5807 5806 5806 5806 5805 5805 5805
5775 5778 5780 5783 5786 5787 5790 5792 5794 5797 5798 5799 5802 5804 5799 5801 5801 5802 5802 5802 5802 5802 5803 5803 5803 5804 5804 5804 5804 5803 5803 5802 5802 5802 5801 5801 5801 5800 5800 5800 5799 5799 5798 5799
5768 5771 5774 5777 5780 5780 5782 5784 5787 5789 5791 5792 5794 5797 5793 5793 5794 5794 5794 5794 5795 5795 5795 5796 5796 5796 5797 5797 5796 5796 5796 5795 5795 5795 5794 5794 5794 5794 5794 5793 5793 5792 5792 5792
5760 5763 5768 5771 5772 5773 5775 5777 5779 5781 5783 5784 5787 5787 5786 5786 5787 5787 5787 5787 5788 5788 5788 5788 5789 5789 5789 5789 5789 5788 5788 5787 5787 5787 5787 5787 5787 5787 5787 5786 5786 5786 5785 5785
5753 5756 5759 5761 5763 5765 5767 5769 5771 5773 5775 5777 5778 5779 5779 5778 5779 5779 5779 5780 5780 5780 5780 5781 5781 5781 5781 5781 5781 5781 5780 5780 5779 5779 5779 5780 5780 5780 5779 5779 5779 5778 5778 5778
5745 5748 5751 5753 5755 5757 5758 5761 5763 5765 5766 5768 5769 5770 5770 5770 5771 5772 5772 5772 5772 5773 5773 5773 5773 5773 5773 5773 5773 5773 5772 5772 5772 5772 5772 5772 5772 5772 5772 5772 5771 5771 5771 5771
5738 5741 5743 5745 5747 5748 5750 5753 5755 5756 5758 5759 5761 5762 5762 5762 5763 5764 5764 5764 5764 5765 5765 5765 5765 5765 5765 5765 5765 5765 5765 5764 5764 5764 5764 5764 5764 5764 5764 5764 5763 5763 5763 5763
5731 5733 5735 5737 5739 5740 5744 5745 5746 5748 5749 5750 5751 5752 5753 5753 5754 5755 5756 5756 5756 5757 5757 5757 5757 5757 5757 5757 5757 5756 5756 5756 5756 5756 5756 5756 5756 5756 5756 5755 5756 5756 5756 5755
5724 5725 5727 5729 5731 5732 5734 5736 5738 5739 5740 5742 5742 5743 5744 5744 5745 5746 5746 5747 5748 5748 5748 5748 5748 5748 5749 5748 5748 5748 5748 5748 5748 5747 5748 5748 5748 5748 5748 5748 5748 5748 5747 5747
5717 5718 5720 5721 5723 5724 5727 5728 5729 5732 5732 5733 5734 5735 5735 5736 5737 5738 5738 5738 5739 5740 5740 5740 5740 5740 5740 5740 5740 5740 5740 5740 5739 5739 5739 5740 5740 5740 5740 5740 5740 5739 5739 5738
5709 5711 5712 5714 5715 5716 5719 5720 5722 5724 5724 5724 5725 5726 5727 5727 5729 5729 5729 5730 5730 5731 5731 5731 5731 5731 5731 5731 5731 5731 5731 5731 5731 5730 5731 5731 5732 5732 5732 5732 5732 5731 5730 5730
5702 5704 5706 5707 5709 5712 5711 5712 5714 5714 5715 5715 5716 5717 5718 5718 5719 5720 5720 5721 5722 5722 5723 5723 5723 5723 5723 5723 5722 5722 5722 5722 5722 5722 5722 5723 5723 5723 5724 5724 5723 5722 5722 5721
5696 5698 5699 5701 5703 5703 5703 5704 5704 5705 5706 5706 5707 5708 5709 5710 5711 5711 5712 5713 5713 5714 5714 5714 5714 5714 5714 5714 5714 5714 5714 5713 5713 5714 5714 5715 5715 5715 5715 5715 5715 5714 5713 5712
5689 5690 5691 5693 5694 5695 5695 5695 5696 5696 5696 5697 5698 5699 5700 5701 5702 5702 5703 5704 5704 5705 5705 5705 5705 5705 5705 5705 5705 5705 5705 5705 5706 5706 5706 5706 5707 5707 5706 5706 5706 5706 5705 5704
5682 5683 5684 5685 5685 5686 5686 5686 5686 5687 5687 5688 5688 5689 5690 5691 5692 5693 5694 5695 5696 5696 5696 5696 5696 5696 5697 5697 5697 5697 5697 5697 5697 5697 5698 5698 5698 5698 5698 5698 5697 5697 5697 5696
5675 5676 5676 5676 5677 5677 5677 5677 5677 5678 5678 5679 5679 5680 5681 5682 5683 5684 5686 5686 5687 5687 5688 5688 5688 5688 5688 5688 5688 5689 5689 5689 5689 5689 5689 5690 5690 5690 5690 5690 5689 5689 5688 5688